Hayward, WI

10:52 AM CST on November 12, 2019 (GMT -0600)
Sawyer County

Weather History for KHYR - October, 2019

Change the Weather History Date:

Sunday, October 20, 2019

  Actual Average Record
Temperature  
Mean Temperature 46 °F -  
Max Temperature 64 °F 62 °F 78 °F (2003)
Min Temperature 28 °F 35 °F 21 °F (1999)
Degree Days  
Heating Degree Days 20    
Moisture  
Dew Point 33 °F    
Average Humidity 75    
Maximum Humidity 100    
Minimum Humidity 29    
Precipitation  
Precipitation 0.00 in - - ()
Sea Level Pressure  
Sea Level Pressure 29.84 in    
Wind  
Wind Speed 1 mph (SSE)    
Max Wind Speed 9 mph    
Max Gust Speed -    
Visibility 8 miles    
Events      
Averages and records for this station are not official NWS values.
T = Trace of Precipitation, MM = Missing Value Source: NWS Daily Summary

Daily Weather History Graph

Daily Weather History Graph

Search for Another Location

Airport or City:

Astronomy

Oct. 20, 2019 Rise Set
Actual Time 7:29 AM CDT 6:11 PM CDT
Civil Twilight 6:58 AM CDT 6:41 PM CDT
Nautical Twilight 6:24 AM CDT 7:16 PM CDT
Astronomical Twilight 5:49 AM CDT 7:50 PM CDT
Moon 11:07 PM CDT (10/20) 2:10 PM CDT (10/20)
Length of Visible Light 11h 42m
Length of Day
10h 41m
Waning Gibbous, 59% of the Moon is Illuminated
Oct 20
Waning Gibbous
Oct 21
Last Quarter
Oct 27
New
Nov 4
First Quarter
Nov 12
Full

Hourly Weather History & Observations

Time (CDT) Temp. Windchill Dew Point Humidity Pressure Visibility Wind Dir Wind Speed Gust Speed Precip Events Conditions
12:27 AM 36.0 °F - 34.0 °F 93% 29.73 in 1.0 mi Calm Calm - N/A   Mist
12:42 AM 36.0 °F - 34.0 °F 93% 29.73 in 2.5 mi Calm Calm - N/A   Clear
12:47 AM 33.8 °F - 33.8 °F 100% 29.73 in 1.8 mi Calm Calm - N/A   Partly Cloudy
12:53 AM 35.1 °F - 33.1 °F 92% 29.76 in 1.2 mi Calm Calm - N/A   Scattered Clouds
1:08 AM 34.0 °F - 33.1 °F 96% 29.73 in 1.0 mi Calm Calm - N/A   Mist
1:21 AM 34.0 °F - 33.1 °F 96% 29.73 in 1.5 mi Calm Calm - N/A   Partly Cloudy
1:53 AM 32.0 °F - 30.0 °F 92% 29.77 in 10.0 mi Calm Calm - N/A   Partly Cloudy
2:53 AM 32.0 °F - 28.9 °F 88% 29.78 in 10.0 mi Calm Calm - N/A   Clear
3:02 AM 32.0 °F - 28.9 °F 88% 29.76 in 10.0 mi Calm Calm - N/A   Partly Cloudy
3:42 AM 30.9 °F - 28.9 °F 92% 29.76 in 2.0 mi Calm Calm - N/A   Mostly Cloudy
3:53 AM 30.9 °F - 28.9 °F 92% 29.78 in 7.0 mi Calm Calm - N/A   Mostly Cloudy
4:08 AM 30.9 °F - 28.9 °F 92% 29.76 in 10.0 mi Calm Calm - N/A   Scattered Clouds
4:53 AM 30.0 °F - 28.0 °F 92% 29.80 in 10.0 mi Calm Calm - N/A   Clear
5:53 AM 30.0 °F - 28.0 °F 92% 29.83 in 10.0 mi Calm Calm - N/A   Clear
6:53 AM 28.9 °F - 27.0 °F 92% 29.85 in 10.0 mi Calm Calm - N/A   Clear
7:53 AM 28.9 °F - 27.0 °F 92% 29.87 in 10.0 mi Calm Calm - N/A   Clear
8:53 AM 34.0 °F - 32.0 °F 92% 29.89 in 10.0 mi Calm Calm - N/A   Clear
9:53 AM 45.0 °F - 39.0 °F 80% 29.91 in 10.0 mi Calm Calm - N/A   Clear
10:53 AM 51.1 °F - 37.9 °F 61% 29.92 in 10.0 mi SSW 3.5 mph - N/A   Clear
11:53 AM 57.0 °F - 37.9 °F 49% 29.90 in 10.0 mi Calm Calm - N/A   Clear
12:53 PM 60.1 °F - 34.0 °F 38% 29.90 in 10.0 mi Variable 3.5 mph - N/A   Clear
1:53 PM 62.1 °F - 34.0 °F 35% 29.90 in 10.0 mi North - - N/A   Clear
2:53 PM 63.0 °F - 30.9 °F 30% 29.90 in 10.0 mi WSW 5.8 mph - N/A   Clear
3:53 PM 63.0 °F - 30.0 °F 29% 29.90 in 10.0 mi South 9.2 mph - N/A   Clear
4:53 PM 61.0 °F - 28.0 °F 29% 29.91 in 10.0 mi SSE 6.9 mph - N/A   Clear
5:53 PM 54.0 °F - 34.0 °F 47% 29.92 in 10.0 mi ESE 3.5 mph - N/A   Clear
6:53 PM 48.0 °F - 37.0 °F 66% 29.92 in 10.0 mi Calm Calm - N/A   Clear
7:53 PM 46.9 °F - 39.9 °F 77% 29.92 in 10.0 mi Calm Calm - N/A   Clear
8:53 PM 45.0 °F - 37.9 °F 76% 29.92 in 10.0 mi Calm Calm - N/A   Clear
9:53 PM 46.0 °F - 39.0 °F 76% 29.91 in 10.0 mi Calm Calm - N/A   Clear
10:53 PM 48.9 °F - 37.0 °F 64% 29.91 in 10.0 mi SE 3.5 mph - N/A   Partly Cloudy
11:53 PM 46.0 °F 43.9 °F 35.1 °F 66% 29.89 in 10.0 mi East 4.6 mph - N/A   Clear